[[{"header":{"parameterUnit":"m.s-1","parameterCategory":1,"la1":30.2991,"la2":30.254,"lo1":-89.0895,"lo2":-89.0444,"dy":0.0017,"dx":0.0017,"nx":28,"ny":28,"refTime":"2025-04-22T03:00:00:Z","depth":0,"parameterNumber":2,"parameterNumberName":"U-component_of_WINDS"},"data":[0,0,0,0,0,0,0,0,0,0,0,0,0,0,0,0,0,0,0,0,0,0,0,0,0,0,0,0,0,0,0,0,0,0,0,0,0,0,0,0,0,0,0,0,0,0,0,0,0,0,0,0,0,0,0,0,0,0,-1.4258,-1.4258,0,-1.4183,-1.4182,-1.4181,-1.4109,-1.4108,-1.4107,-1.4107,-1.4026,-1.4025,-1.4023,0,0,0,0,0,0,0,0,0,0,0,0,0,-1.4338,-1.4337,-1.4258,-1.4258,-1.4257,-1.4183,-1.4182,-1.4181,-1.4109,-1.4108,-1.4107,-1.4106,-1.4026,-1.4025,-1.4023,0,0,0,0,0,0,0,0,0,0,0,0,0,-1.4287,-1.4337,-1.4259,-1.4212,-1.4207,-1.4183,-1.4182,-1.4181,-1.411,-1.4108,-1.4107,-1.4106,-1.4027,-1.4025,-1.4023,-1.4038,0,0,-1.4017,-1.4016,0,0,0,0,0,0,0,0,-1.429,-1.4284,-1.422,-1.4215,-1.421,-1.4154,-1.418,-1.4132,-1.411,-1.4147,-1.4107,-1.4105,-1.4069,-1.4064,-1.4052,-1.4034,-1.403,-1.4017,-1.4015,-1.4015,-1.4014,0,0,0,0,0,0,0,-1.4294,-1.4287,-1.4228,-1.4219,-1.4213,-1.4194,-1.4185,-1.4171,-1.4116,-1.4143,-1.4138,-1.413,-1.4066,-1.4055,-1.405,-1.4029,-1.4017,-1.4015,-1.4014,-1.4013,-1.4018,-1.402,0,0,0,0,0,0,-1.4305,-1.4291,-1.4231,-1.4226,-1.4248,-1.4194,-1.4184,-1.4173,-1.4116,-1.4106,-1.4131,-1.4127,-1.4059,-1.4052,-1.4047,-1.406,-1.4015,-1.4013,-1.4012,-1.4017,-1.4019,-1.402,0,0,0,0,0,0,-1.4307,-1.43,-1.4234,-1.4257,-1.4247,-1.4194,-1.4182,-1.4173,-1.4161,-1.4107,-1.4097,-1.413,-1.4057,-1.405,-1.4041,-1.4056,-1.4012,-1.401,-1.4015,-1.4017,-1.4019,-1.4087,0,0,0,0,0,0,-1.4309,-1.4301,-1.4307,-1.4258,-1.4246,-1.423,-1.4183,-1.4172,-1.4158,-1.4152,-1.4103,-1.4093,-1.4056,-1.4044,-1.4039,-1.4053,-1.4009,-1.4014,-1.4016,-1.4019,-1.4083,-1.4091,-1.4098,0,0,0,0,0,-1.4313,-1.4329,-1.4308,-1.4301,-1.4252,-1.4231,-1.4224,-1.4181,-1.416,-1.4164,-1.413,-1.4095,-1.4056,-1.4044,-1.4037,-1.4051,-1.4013,-1.4016,-1.4019,-1.408,-1.409,-1.4098,0,0,0,0,0,0,-1.438,-1.4321,-1.4297,-1.4298,-1.427,-1.4219,-1.4224,-1.4193,-1.417,-1.4165,-1.4112,-1.4101,-1.4098,-1.4073,-1.4061,-1.4062,-1.4029,-1.4031,-1.4078,-1.4087,-1.4094,-1.41,-1.4007,0,0,0,0,0,-1.4396,-1.4384,-1.4333,-1.4338,-1.4326,-1.4278,-1.4267,-1.4236,-1.4204,-1.4192,-1.4157,-1.4127,-1.4108,-1.4096,-1.4075,-1.408,-1.4068,-1.4086,-1.4093,-1.41,-1.4102,-1.4102,-1.4109,-1.403,-1.403,-1.403,0,0,-1.4426,-1.4393,-1.4389,-1.4351,-1.4326,-1.4314,-1.4268,-1.4258,-1.4248,-1.419,-1.418,-1.4153,-1.4116,-1.4114,-1.4111,-1.4093,-1.4121,-1.4103,-1.4109,-1.4107,-1.4106,-1.4113,-1.412,-1.4032,-1.4032,-1.4031,0,0,-1.4477,-1.4451,-1.4452,-1.4428,-1.4391,-1.4359,-1.436,-1.4313,-1.4293,-1.4282,-1.4238,-1.4226,-1.4194,-1.4169,-1.4153,-1.4195,-1.4161,-1.4189,-1.4228,-1.4228,-1.4235,-1.424,-1.4255,-1.4261,-1.4191,-1.4192,-1.4192,0,-1.452,-1.4502,-1.4457,-1.4449,-1.4434,-1.4382,-1.4383,-1.4361,-1.4319,-1.4309,-1.429,-1.4249,-1.422,-1.4212,-1.4222,-1.421,-1.4208,-1.4194,-1.4238,-1.4243,-1.4247,-1.426,-1.4266,-1.4195,-1.4195,-1.4194,-1.4194,0,-1.4556,-1.4544,-1.455,-1.4512,-1.4497,-1.4494,-1.4448,-1.4438,-1.4409,-1.4378,-1.4367,-1.4331,-1.4303,-1.4298,-1.4269,-1.4285,-1.4275,-1.4248,-1.4214,-1.4259,-1.427,-1.4275,-1.42,-1.4199,-1.4198,-1.4197,0,0,-1.4647,-1.4584,-1.4587,-1.4569,-1.4524,-1.4514,-1.4508,-1.4481,-1.4474,-1.4446,-1.4439,-1.4414,-1.4388,-1.437,-1.4337,-1.4338,-1.4373,-1.431,-1.4308,-1.4323,-1.4388,-1.441,-1.4416,-1.4351,-1.4352,-1.4353,-1.4392,0,-1.469,-1.4677,-1.4637,-1.4636,-1.4625,-1.4575,-1.457,-1.4542,-1.4513,-1.4498,-1.4466,-1.4449,-1.4417,-1.4405,-1.4404,-1.4369,-1.4386,-1.4366,-1.4344,-1.4343,-1.4354,-1.4422,-1.4444,-1.4483,-1.4396,-1.4397,-1.4397,0,-1.4738,-1.4715,-1.4714,-1.467,-1.4663,-1.466,-1.4632,-1.4618,-1.4585,-1.4564,-1.4544,-1.4508,-1.4498,-1.4467,-1.4452,-1.444,-1.4428,-1.441,-1.4411,-1.4407,-1.4373,-1.442,-1.4494,-1.45,-1.4404,-1.4403,-1.4403,0,-1.4805,-1.4773,-1.4768,-1.4754,-1.4703,-1.4701,-1.468,-1.4645,-1.4631,-1.4606,-1.4597,-1.4571,-1.4557,-1.4537,-1.4495,-1.4476,-1.4485,-1.445,-1.4467,-1.4468,-1.447,-1.4471,-1.4544,-1.4464,-1.4464,-1.4463,-1.4463,0,-1.4857,-1.4858,-1.4797,-1.4795,-1.4794,-1.4747,-1.4748,-1.4721,-1.4691,-1.4681,-1.4636,-1.4628,-1.4573,-1.4558,-1.4525,-1.4518,-1.4512,-1.4494,-1.4485,-1.4498,-1.45,-1.4489,-1.4486,-1.4465,-1.4465,-1.4464,-1.4464,0,-1.4931,-1.489,-1.4882,-1.4834,-1.4822,-1.4824,-1.4782,-1.4777,-1.4746,-1.4735,-1.4729,-1.468,-1.466,-1.4617,-1.4585,-1.4562,-1.4563,-1.4547,-1.4575,-1.457,-1.4589,-1.4587,-1.4657,-1.4664,-1.458,-1.4581,-1.4581,0,-1.4967,-1.4967,-1.4919,-1.491,-1.489,-1.4876,-1.4862,-1.4816,-1.4803,-1.4765,-1.4764,-1.4741,-1.472,-1.4691,-1.4652,-1.4627,-1.461,-1.4636,-1.4606,-1.4619,-1.461,-1.4611,-1.461,-1.4643,-1.4644,-1.4645,-1.4645,0,-1.5035,-1.5015,-1.4997,-1.4973,-1.4958,-1.4936,-1.4911,-1.4906,-1.4853,-1.4841,-1.4821,-1.4805,-1.4773,-1.475,-1.472,-1.4696,-1.4662,-1.4655,-1.4658,-1.4671,-1.4687,-1.4679,-1.4593,-1.4654,-1.4653,-1.4652,-1.4652,-1.4652,-1.5091,-1.5089,-1.5055,-1.5036,-1.5013,-1.4992,-1.4985,-1.4953,-1.4936,-1.4907,-1.488,-1.4862,-1.4828,-1.4784,-1.4762,-1.4747,-1.473,-1.4734,-1.4735,-1.4736,-1.4742,-1.469,-1.4741,-1.4741,-1.4741,-1.4741,-1.474,0,-1.5157,-1.5133,-1.5116,-1.5084,-1.507,-1.504,-1.5011,-1.5001,-1.4986,-1.4958,-1.4938,-1.4915,-1.4893,-1.4852,-1.4827,-1.4822,-1.4806,-1.4817,-1.4817,-1.4812,-1.4759,-1.4759,-1.4831,-1.4831,-1.483,-1.483,-1.483,-1.483,-1.5189,-1.5184,-1.516,-1.5142,-1.5118,-1.5101,-1.5087,-1.5067,-1.5044,-1.502,-1.5002,-1.4976,-1.4942,-1.4914,-1.4892,-1.488,-1.4873,-1.4889,-1.4873,-1.4824,-1.4815,-1.4807,-1.4807,-1.4888,-1.4888,-1.4927,-1.4927,-1.4928]},{"header":{"parameterUnit":"m.s-1","parameterCategory":1,"la1":30.2991,"la2":30.254,"lo1":-89.0895,"lo2":-89.0444,"dy":0.0017,"dx":0.0017,"nx":28,"ny":28,"refTime":"2025-04-22T03:00:00:Z","depth":0,"parameterNumber":3,"parameterNumberName":"V-component_of_WINDS"},"data":[0,0,0,0,0,0,0,0,0,0,0,0,0,0,0,0,0,0,0,0,0,0,0,0,0,0,0,0,0,0,0,0,0,0,0,0,0,0,0,0,0,0,0,0,0,0,0,0,0,0,0,0,0,0,0,0,0,0,1.6847,1.6847,0,1.6857,1.6857,1.6857,1.6855,1.6855,1.6855,1.6855,1.6865,1.6865,1.6866,0,0,0,0,0,0,0,0,0,0,0,0,0,1.6824,1.6825,1.6847,1.6847,1.6847,1.6857,1.6857,1.6857,1.6855,1.6855,1.6855,1.6855,1.6865,1.6865,1.6866,0,0,0,0,0,0,0,0,0,0,0,0,0,1.6834,1.6825,1.6847,1.6847,1.6847,1.6857,1.6857,1.6857,1.6855,1.6855,1.6855,1.6855,1.6865,1.6865,1.6866,1.6876,0,0,1.6868,1.6868,0,0,0,0,0,0,0,0,1.6834,1.6835,1.6847,1.6847,1.6847,1.6855,1.6853,1.6863,1.6855,1.6852,1.6855,1.6854,1.6862,1.6863,1.6865,1.6876,1.6877,1.6868,1.6868,1.6869,1.6869,0,0,0,0,0,0,0,1.6833,1.6835,1.6851,1.6847,1.6847,1.6847,1.6848,1.6855,1.6858,1.6853,1.6852,1.6854,1.6862,1.6865,1.6865,1.6877,1.6868,1.6869,1.6869,1.6869,1.6897,1.6897,0,0,0,0,0,0,1.6832,1.6834,1.685,1.6851,1.684,1.6847,1.6849,1.6853,1.6858,1.6859,1.6854,1.6854,1.6864,1.6865,1.6866,1.6878,1.6869,1.6869,1.687,1.6896,1.6897,1.6897,0,0,0,0,0,0,1.6832,1.6834,1.685,1.6843,1.6845,1.6848,1.6852,1.6853,1.6856,1.6859,1.686,1.6856,1.6863,1.6865,1.6873,1.6878,1.687,1.687,1.6896,1.6896,1.6897,1.6902,0,0,0,0,0,0,1.6831,1.6834,1.6837,1.6843,1.6845,1.6858,1.6853,1.6853,1.6857,1.6856,1.6862,1.6862,1.6863,1.6872,1.6874,1.6879,1.6871,1.6895,1.6896,1.6897,1.6901,1.6902,1.6903,0,0,0,0,0,1.683,1.6838,1.6838,1.684,1.685,1.6858,1.6859,1.686,1.6857,1.6861,1.6864,1.6862,1.6877,1.6873,1.6875,1.688,1.6895,1.6896,1.6897,1.6901,1.6902,1.6903,0,0,0,0,0,0,1.6833,1.6839,1.6838,1.6848,1.6853,1.6857,1.6862,1.6862,1.6867,1.6866,1.6867,1.6868,1.6877,1.6879,1.6875,1.689,1.6886,1.6887,1.6888,1.689,1.6891,1.689,1.6871,0,0,0,0,0,1.6835,1.6841,1.6846,1.6854,1.6856,1.6859,1.6862,1.6863,1.6867,1.6869,1.6872,1.6877,1.6882,1.6886,1.6892,1.6901,1.6903,1.6906,1.6907,1.6908,1.6909,1.6915,1.6916,1.6899,1.6899,1.6899,0,0,1.6839,1.6843,1.6847,1.6855,1.6858,1.6865,1.6861,1.6867,1.6872,1.687,1.6879,1.6881,1.6886,1.6895,1.6899,1.6897,1.6914,1.6909,1.691,1.691,1.6916,1.6917,1.6919,1.69,1.69,1.69,0,0,1.6849,1.6853,1.686,1.6864,1.6869,1.6871,1.6873,1.6878,1.6879,1.6888,1.6887,1.6892,1.6902,1.6905,1.6908,1.692,1.6919,1.6922,1.6928,1.6933,1.6934,1.6936,1.694,1.6942,1.6923,1.6923,1.6923,0,1.6853,1.6863,1.6864,1.6871,1.6875,1.6873,1.6881,1.6884,1.6891,1.6894,1.6891,1.6904,1.6907,1.6917,1.692,1.6922,1.6924,1.6921,1.6934,1.6935,1.6936,1.6941,1.6942,1.6923,1.6923,1.6923,1.6923,0,1.6868,1.6874,1.688,1.6887,1.6891,1.6898,1.69,1.6904,1.6904,1.6906,1.6915,1.6918,1.6925,1.6927,1.6927,1.6938,1.6936,1.6934,1.693,1.6938,1.6942,1.6944,1.6924,1.6923,1.6923,1.6923,0,0,1.6881,1.6888,1.689,1.6893,1.6899,1.6904,1.6911,1.6917,1.6921,1.6926,1.6932,1.694,1.6938,1.6942,1.6942,1.6947,1.6956,1.6944,1.6944,1.6946,1.6968,1.697,1.6972,1.6955,1.6955,1.6956,1.6968,0,1.6892,1.6905,1.6906,1.6917,1.6923,1.6922,1.6928,1.6933,1.6935,1.694,1.6942,1.6948,1.6945,1.6947,1.6952,1.6954,1.696,1.6953,1.6961,1.6961,1.696,1.6974,1.6976,1.6987,1.6969,1.6969,1.697,0,1.6907,1.6912,1.6924,1.6929,1.6932,1.6937,1.6943,1.6949,1.6953,1.6954,1.6958,1.6958,1.6965,1.696,1.697,1.6965,1.6968,1.697,1.697,1.6972,1.6966,1.6976,1.6991,1.6992,1.6972,1.6972,1.6972,0,1.6915,1.6925,1.6934,1.6937,1.6943,1.6947,1.6949,1.6954,1.6958,1.6963,1.6965,1.6971,1.6974,1.6979,1.698,1.6976,1.699,1.6985,1.6991,1.6991,1.6994,1.6994,1.701,1.6996,1.6996,1.6996,1.6996,0,1.6928,1.6935,1.6938,1.6944,1.6952,1.6953,1.6961,1.6964,1.6967,1.6973,1.6972,1.6978,1.6979,1.6984,1.6985,1.6994,1.6995,1.6996,1.6996,1.6996,1.6996,1.6999,1.6998,1.6996,1.6996,1.6996,1.6996,0,1.6939,1.6941,1.6951,1.6956,1.6957,1.6963,1.6967,1.6972,1.6974,1.6981,1.6983,1.6986,1.6992,1.6994,1.7001,1.7002,1.7012,1.7011,1.7011,1.7011,1.7017,1.7016,1.7035,1.7038,1.7021,1.7021,1.7021,0,1.6947,1.6953,1.6959,1.6963,1.6966,1.6972,1.6976,1.6977,1.6981,1.6987,1.6991,1.6997,1.7003,1.7013,1.7016,1.7022,1.7021,1.7027,1.7022,1.7022,1.7022,1.7022,1.7022,1.7029,1.7029,1.7029,1.7029,0,1.6962,1.6963,1.6968,1.6975,1.6979,1.6984,1.6989,1.6992,1.6994,1.6998,1.7005,1.7009,1.7017,1.7023,1.7029,1.7032,1.7031,1.7031,1.7032,1.7033,1.7032,1.7033,1.7014,1.703,1.703,1.703,1.703,1.703,1.6972,1.6977,1.6982,1.6989,1.6992,1.6997,1.7002,1.7004,1.701,1.7017,1.7017,1.7024,1.7028,1.7036,1.7039,1.7045,1.7043,1.7045,1.7046,1.7047,1.7048,1.7031,1.7046,1.7046,1.7046,1.7046,1.7046,0,1.6987,1.699,1.6996,1.7003,1.7008,1.7006,1.7011,1.7016,1.7022,1.7026,1.7032,1.7039,1.7045,1.7048,1.7055,1.7059,1.7058,1.706,1.706,1.7061,1.7049,1.7047,1.706,1.706,1.706,1.706,1.706,1.706,1.6995,1.7004,1.7006,1.7016,1.7019,1.7026,1.7029,1.7033,1.7037,1.7046,1.7051,1.7053,1.7056,1.7063,1.7068,1.7069,1.7071,1.7074,1.7074,1.7063,1.7062,1.706,1.7058,1.7074,1.7074,1.7086,1.7086,1.7086]}]]